| time (UTC) | temp F | wind direction | speed MPH | gust MPH | rain 1hr in | rain 24hr in | rain mn in | humidity % | barometer mb |
| 20260505024505 | 71 | 219 | 5.0 | 10.0 | 0.00 | 0.00 | 0.00 | 59 | 1002.3 |
| 20260505023058 | 71 | 242 | 4.0 | 8.0 | 0.00 | 0.00 | 0.00 | 58 | 1002.0 |
| 20260505021522 | 71 | 223 | 5.0 | 8.0 | 0.00 | 0.00 | 0.00 | 57 | 1001.6 |
| 20260505020002 | 72 | 205 | 3.0 | 8.0 | 0.00 | 0.00 | 0.00 | 57 | 1001.3 |
| 20260505014542 | 73 | 245 | 6.0 | 12.0 | 0.00 | 0.00 | 0.00 | 55 | 1001.2 |
| 20260505013023 | 73 | 167 | 5.0 | 11.0 | 0.00 | 0.00 | 0.00 | 55 | 1001.1 |
| 20260505011506 | 74 | 248 | 6.0 | 12.0 | 0.00 | 0.00 | 0.00 | 55 | 1001.1 |
| 20260505010048 | 75 | 251 | 5.0 | 10.0 | 0.00 | 0.00 | 0.00 | 54 | 1000.9 |
| 20260505004539 | 75 | 206 | 6.0 | 11.0 | 0.00 | 0.00 | 0.00 | 52 | 1000.8 |
| 20260505003011 | 76 | 207 | 8.0 | 14.0 | 0.00 | 0.00 | 0.00 | 51 | 1000.7 |
| 20260505001556 | 77 | 224 | 5.0 | 10.0 | 0.00 | 0.00 | 0.00 | 50 | 1000.6 |
| 20260505000038 | 78 | 240 | 5.0 | 14.0 | 0.00 | 0.00 | 0.00 | 46 | 1000.7 |
| 20260504234528 | 78 | 235 | 9.0 | 15.0 | 0.00 | 0.00 | 0.00 | 45 | 1000.6 |
| 20260504233004 | 79 | 243 | 9.0 | 18.0 | 0.00 | 0.00 | 0.00 | 44 | 1000.7 |
| 20260504231554 | 80 | 243 | 11.0 | 20.0 | 0.00 | 0.00 | 0.00 | 42 | 1000.8 |
| 20260504230029 | 80 | 244 | 10.0 | 18.0 | 0.00 | 0.00 | 0.00 | 42 | 1000.8 |
| 20260504224512 | 81 | 274 | 7.0 | 15.0 | 0.00 | 0.00 | 0.00 | 44 | 1000.6 |
| 20260504223059 | 81 | 252 | 14.0 | 21.0 | 0.00 | 0.00 | 0.00 | 42 | 1000.7 |
| 20260504221542 | 81 | 240 | 10.0 | 21.0 | 0.00 | 0.00 | 0.00 | 43 | 1000.7 |
| 20260504220023 | 81 | 264 | 9.0 | 19.0 | 0.00 | 0.00 | 0.00 | 43 | 1000.7 |
| 20260504214506 | 81 | 231 | 13.0 | 22.0 | 0.00 | 0.00 | 0.00 | 43 | 1000.7 |
| 20260504213058 | 81 | 245 | 12.0 | 22.0 | 0.00 | 0.00 | 0.00 | 43 | 1000.8 |
| 20260504211531 | 80 | 236 | 11.0 | 25.0 | 0.00 | 0.00 | 0.00 | 44 | 1000.7 |
| 20260504210015 | 80 | 203 | 11.0 | 20.0 | 0.00 | 0.00 | 0.00 | 45 | 1000.9 |
| 20260504204638 | 80 | 233 | 12.0 | 25.0 | 0.00 | 0.00 | 0.00 | 46 | 1000.9 |
| 20260504203040 | 80 | 229 | 10.0 | 21.0 | 0.00 | 0.00 | 0.00 | 47 | 1001.2 |
| 20260504201523 | 80 | 211 | 15.0 | 25.0 | 0.00 | 0.00 | 0.00 | 45 | 1001.2 |
| 20260504200010 | 79 | 233 | 10.0 | 20.0 | 0.00 | 0.00 | 0.00 | 47 | 1001.4 |
| 20260504194556 | 78 | 212 | 6.0 | 19.0 | 0.00 | 0.00 | 0.00 | 49 | 1002.0 |
| 20260504193039 | 79 | 236 | 10.0 | 23.0 | 0.00 | 0.00 | 0.00 | 48 | 1002.3 |
| 20260504191522 | 78 | 231 | 6.0 | 10.0 | 0.00 | 0.00 | 0.00 | 50 | 1002.5 |
| 20260504190007 | 76 | 240 | 9.0 | 20.0 | 0.00 | 0.00 | 0.00 | 48 | 1002.8 |
| 20260504184602 | 77 | 250 | 11.0 | 21.0 | 0.00 | 0.00 | 0.00 | 48 | 1003.0 |
| 20260504183034 | 78 | 252 | 10.0 | 18.0 | 0.00 | 0.00 | 0.00 | 47 | 1002.8 |
| 20260504181518 | 79 | 257 | 8.0 | 18.0 | 0.00 | 0.00 | 0.00 | 46 | 1002.8 |
| 20260504180003 | 78 | 236 | 8.0 | 16.0 | 0.00 | 0.00 | 0.00 | 47 | 1002.9 |
| 20260504174551 | 77 | 249 | 10.0 | 17.0 | 0.00 | 0.00 | 0.00 | 48 | 1003.1 |
| 20260504173031 | 77 | 257 | 8.0 | 22.0 | 0.00 | 0.00 | 0.00 | 48 | 1003.1 |
| 20260504171533 | 77 | 276 | 9.0 | 24.0 | 0.00 | 0.00 | 0.00 | 49 | 1003.3 |
| 20260504081524 | 61 | 254 | 2.0 | 4.0 | 0.00 | 0.00 | 0.00 | 68 | 1006.1 |
| 20260504050017 | 63 | 236 | 5.0 | 10.0 | 0.00 | 0.00 | 0.00 | 62 | 1007.8 |
| 20260504044502 | 64 | 223 | 6.0 | 9.0 | 0.00 | 0.00 | 0.00 | 62 | 1008.0 |
| 20260504043047 | 64 | 231 | 6.0 | 9.0 | 0.00 | 0.00 | 0.00 | 61 | 1008.1 |
| 20260504041529 | 64 | 185 | 6.0 | 13.0 | 0.00 | 0.00 | 0.00 | 60 | 1008.2 |
| 20260504040006 | 65 | 210 | 6.0 | 12.0 | 0.00 | 0.00 | 0.00 | 60 | 1008.2 |
| 20260504034600 | 65 | 219 | 7.0 | 13.0 | 0.00 | 0.00 | 0.00 | 60 | 1008.3 |
| 20260504033024 | 65 | 182 | 6.0 | 11.0 | 0.00 | 0.00 | 0.00 | 59 | 1008.4 |
| 20260504031504 | 65 | 242 | 6.0 | 10.0 | 0.00 | 0.00 | 0.00 | 59 | 1008.6 |
| 20260504030046 | 66 | 243 | 7.0 | 11.0 | 0.00 | 0.00 | 0.00 | 58 | 1008.7 |